User: anonymous   Login
Location: Amanico Ergina Village
(37.7824°N, 122.4366°W)
Time: 20:15:06
(UTC+00:00)
Language:

METEOR-M - Orbit

View from above orbital plane
View from above orbital plane
View from above satellite
View from above satellite

Ground track
Ground track

The orbit data is extracted from the following two-line orbital elements,

1 35865U 09049A   21016.47081716  .00000001  00000-0  19437-4 0  9992
2 35865  98.4619   0.6912 0001365 311.2868  48.8193 14.22261967588057
Epoch (UTC): 16 January 2021 11:17:58
Eccentricity: 0.0001365
inclination: 98.4619°
perigee height: 817 km
apogee height: 818 km
right ascension of ascending node: 0.6912°
argument of perigee: 311.2868°
revolutions per day: 14.22261967
mean anomaly at epoch: 48.8193°
orbit number at epoch: 58805

The dashed part of the orbit path shows where the satellite is in the earth's shadow,  

DLR